Location: Bun Machan
(52.1403°N, 7.3744°W)
Time: 08:44:36
(UTC+00:00)

BREEZE-M DEB (TANK) - Pass Details

Date: 14 July 2020
Orbit: 333 x 16281 km, 49.4° (Epoch: 04 August)

Event Time Altitude Azimuth Distance (km) Brightness Sun altitude
Rises 00:54:31 0° 259° (WSW) 2,704 5.7 -16.1°
Reaches altitude 10° 00:55:53 10° 256° (WSW) 2,099 5.1 -16.1°
Maximum altitude 01:00:09 73° 172° (S) 1,265 3.9 -16.0°
Drops below altitude 10° 01:17:30 10° 92° (E) 7,773 8.2 -15.7°
Sets 01:29:22 0° 93° (E) 11,547 9.1 -15.3°
